COSMOS 2491 DEB, 47111

Orbit data source: Space-Track

COSMOS 2491 DEB, 47111 is space debris in LEO originally from a launch on Wed, 25 Dec 2013 UTC launched from the Plesetsk Missile And Space Complex (PKMTR). Debris objects in space refer to the collection of defunct objects orbiting the Earth. Examples of debris include non-operational satellites, rocket bodies, and fragments generated from explosions, collisions, or faulty payload assembly.

Loading next visibility...
Identifier
47111, 2013-076AG
Orbit
LEO
Last TLE update
3 weeks ago
Origin
Manufacturer
TsNIIKhM
Mission
Spacecraft
Bus & Motor
Unknown
Mass
Unknown
Launch date (UTC)
2013-12-25 (11 years ago)
Launch vehicle
Unknown
Launch site
Plesetsk Missile And Space Complex (PKMTR)
Object type
Payload
Rocket body
Debris
Shape & HBR
Unknown
Radar Cross Section
Small (<0.1 m²)

Expand to show TLE details & history

TLE from 3 weeks ago
0 COSMOS 2491 DEB
1 47111U 13076AG  25105.15389103  .00006648  00000-0  38933-1 0  9995
2 47111  82.4492  56.0111 0117258  56.3343 304.8863 12.56720049 85435
Epoch: 2025-04-15T03:41Z
Definitive object data (Epoch: 2025-04-15T03:41:36.184Z)
Latitude
0.00001°
Longitude
157.05176°
Altitude
1,387.542 km
Speed
7.189 km/s
True Right ascension
03h 44m 02s
True Declination
0° 00' 00"
Sunlit
Object was in daylight at TLE epoch
Visualization TLE readout
Latitude
60.49463°
Longitude
154.9705°
Altitude
1,397.66 km
Speed
7.188 km/s
Apparent Right ascension
04h 20m 43s
Apparent Declination
17° 15' 32"
Sunlit
Object is in daylight
Visualization observer readout
Local Sidereal Time
16:55:52
Azimuth
9.936° NNE
Elevation
-32.24°
Doppler factor
1
Orbital elements
Apogee altitude
1,525.447 km
Perigee altitude
1,342.243 km
Semi-major axis
7,811.982 km
Eccentricity
0.0117258
Inclination
82.4492°
RAAN
56.0111°
Arg. of periapsis
56.3343°
True anomaly
303.77485°
Mean anomaly
304.8863°
Eccentric anomaly
304.3315°
Mean motion
3.14341 °/min
BSTAR
0.038933
Orbital period
114.53 mins
Loading maneuver chart data...
Loading SW <> Apogee altitude chart data...
Loading historical data...
Loading historical data...
Loading historical data...
Loading historical data...
Loading historical data...
Loading historical data...
Loading historical data...

COSMOS 2491 DEB Visibility forecast

Observer location: undefined°, undefined°

Span
Click to sort rows by Start time (UTC) header in descending order
Start Az.
Max El. time (UTC)
Max El. Az.
Max El.
End time (UTC)
End Az.
15 mins2025-05-09 18:05:39.760Z160.708° S2025-05-09 18:12:39.760Z97.335° ESE37.215°2025-05-09 18:20:39.760Z18.308° NNE
12 mins2025-05-09 20:03:39.760Z237.599° WSW2025-05-09 20:08:39.760Z287.954° WNW28.084°2025-05-09 20:15:39.760Z349.472° N
10 mins2025-05-10 04:11:39.760Z29.159° NE2025-05-10 04:15:39.760Z62.006° ENE20.721°2025-05-10 04:21:39.760Z109.121° ESE
15 mins2025-05-10 06:05:39.760Z348.728° N2025-05-10 06:12:39.760Z250.535° W44.436°2025-05-10 06:20:39.760Z181.09° SSW
6 mins2025-05-10 08:03:39.760Z304.769° NW2025-05-10 08:06:39.760Z282.987° WNW13.926°2025-05-10 08:09:39.760Z261.585° W
|